Location: Baix
(44.7118°N, 4.7648°E)
Time: 19:13:49
(UTC+00:00)

Meteor 1-22 Rocket - Pass Details

Date: 07 August 2020
Orbit: 787 x 940 km, 81.2° (Epoch: 24 September)

Event Time Altitude Azimuth Distance (km) Brightness Sun altitude
Exits shadow 02:27:32 36° 217° (SW) 1,242 4.5 -18.9°
Maximum altitude 02:29:36 62° 283° (WNW) 887 4.1 -18.6°
Drops below altitude 10° 02:34:52 10° 4° (N) 2,368 7.3 -18.0°
Sets 02:37:18 0° 8° (N) 3,311 8.2 -17.7°
